Weather History for MRLB - October, 2014

Change the Weather History Date:

Tuesday, October 28, 2014

  Actual Average (WUND) Record (WUND)
Temperature  
Mean Temperature 80 °F -  
Max Temperature 88 °F 85 °F - (-1)
Min Temperature 72 °F 72 °F - (-1)
Cooling Degree Days 15    
Growing Degree Days 30 (Base 50)    
Moisture  
Dew Point 74 °F    
Average Humidity 79    
Maximum Humidity 95    
Minimum Humidity 51    
Precipitation  
Precipitation 0.00 in - - ()
Sea Level Pressure  
Sea Level Pressure 29.87 in    
Wind  
Wind Speed 3 mph ()    
Max Wind Speed 10 mph    
Max Gust Speed -    
Visibility 7.3 miles    
Events Fog , Rain    
Averages and records for this station are not official NWS values.
T = Trace of Precipitation, MM = Missing Value Source: Averaged Metar Reports

Daily Weather History Graph

Daily Weather History Graph

Search for Another Location

Airport or City:

Trip Planner

Search our weather history database for the weather conditions in past years. The results will help you decide how hot, cold, wet, or windy it might be!

Date:

Astronomy

Oct. 28, 2014 Rise Set
Actual Time 5:32 AM CST 5:19 PM CST
Civil Twilight 5:10 AM CST 5:40 PM CST
Nautical Twilight 4:45 AM CST 6:05 PM CST
Astronomical Twilight 4:21 AM CST 6:30 PM CST
Moon 9:43 AM CST (10/28) 9:40 PM CST (10/28)
Length of Visible Light 12h 29m
Length of Day
11h 46m
Waxing Crescent, 25% of the Moon is Illuminated
Oct 28
Waxing Crescent
Oct 30
First Quarter
Nov 6
Full
Nov 14
Last Quarter
Nov 22
New

Hourly Weather History & Observations

Time (CST) Temp. Heat Index Dew Point Humidity Pressure Visibility Wind Dir Wind Speed Gust Speed Precip Events Conditions
6:00 AM 73 °F - 72 °F 95% 29.92 in 6 mi Calm Calm - - Fog Patches of Fog
6:00 AM 73.4 °F - 71.6 °F 94% 29.88 in 6.2 mi Calm Calm - N/A Fog Patches of Fog
7:00 AM 75.2 °F - 73.4 °F 94% 29.90 in 6.2 mi NNE 2.3 mph - N/A Fog Patches of Fog
8:00 AM 78.8 °F - 71.6 °F 78% 29.91 in 6.2 mi Calm Calm - N/A   Scattered Clouds
9:00 AM 82 °F - 73 °F 67% 29.95 in 12 mi WSW 2.3 mph - -   Scattered Clouds
9:00 AM 82.4 °F 88.2 °F 73.4 °F 74% 29.91 in 6.2 mi WSW 2.3 mph - N/A   Scattered Clouds
10:00 AM 82.4 °F 88.2 °F 73.4 °F 74% 29.91 in 6.2 mi SSW 2.3 mph - N/A   Scattered Clouds
11:00 AM 84.2 °F 92.3 °F 75.2 °F 74% 29.89 in 6.2 mi West 5.8 mph - N/A   Scattered Clouds
12:00 PM 88 °F - 72 °F 51% 29.89 in 12 mi West 3.5 mph - -   Partly Cloudy
12:00 PM 86.0 °F 93.4 °F 73.4 °F 66% 29.89 in 6.2 mi West 3.5 mph - N/A   Scattered Clouds
1:00 PM 80.6 °F 87.1 °F 77.0 °F 89% 29.84 in 6.2 mi South 4.6 mph - N/A Rain Light Rain
2:00 PM 82.4 °F 90.9 °F 77.0 °F 84% 29.81 in 6.2 mi WSW 6.9 mph - N/A   Scattered Clouds
3:00 PM 85 °F - 74 °F 63% 29.83 in 12 mi WNW 9.2 mph - -   Scattered Clouds
3:00 PM 84.2 °F 90.9 °F 73.4 °F 70% 29.79 in 6.2 mi WNW 9.2 mph - N/A   Scattered Clouds
4:00 PM 82.4 °F 88.2 °F 73.4 °F 74% 29.79 in 6.2 mi West 10.4 mph - N/A   Scattered Clouds
5:00 PM 82.4 °F 88.2 °F 73.4 °F 74% 29.82 in 6.2 mi West 6.9 mph - N/A   Mostly Cloudy
6:00 PM 80 °F - 76 °F 83% 29.87 in 12 mi SSE 3.5 mph - -   Overcast
6:00 PM 78.8 °F - 75.2 °F 89% 29.83 in 6.2 mi SSE 3.5 mph - N/A   Mostly Cloudy
7:00 PM 77.0 °F - 75.2 °F 94% 29.86 in 6.2 mi South 6.9 mph - N/A   Mostly Cloudy
8:00 PM 75.2 °F - 73.4 °F 94% 29.88 in 6.2 mi SSE 3.5 mph - N/A   Mostly Cloudy